Hourly Data Report for October 18, 2015

All times are specified in Local Standard Time (LST). Add 1 hour to adjust for Daylight Saving Time where and when it is observed.

TORONTO INTL A
ONTARIO

43°40'36.000" N
79°37'50.000" W
173.40 m
6158731
71624
YYZ

Download Data

Hourly Data (October 2015)
Hourly Data Report for October 18, 2015
Temp Definition
°C
Dew Point Temp Definition
°C
Rel Hum Definition
%
Wind Dir Definition
10's deg

Wind Spd Definition
km/h
Visibility Definition
km
Stn Press Definition
kPa
Hmdx Definition


Wind Chill Definition


Weather Definition


TIME
00:00 Legend Double Dagger -0.2 -5.2 69 33 11 24.1 100.44   -4 LegendNANA
01:00 Legend Double Dagger -0.7 -5.1 72 32 13 24.1 100.45   -5 Mostly Cloudy
02:00 Legend Double Dagger -2.2 -5.9 76 30 8 24.1 100.42   -5 LegendNANA
03:00 Legend Double Dagger -1.6 -5.1 77 29 8 24.1 100.42   -5 LegendNANA
04:00 Legend Double Dagger -0.5 -4.0 77 2 9 24.1 100.45   -4 Mostly Cloudy
05:00 Legend Double Dagger -0.5 -4.2 76 2 7 24.1 100.47   -3 LegendNANA
06:00 Legend Double Dagger -0.3 -3.7 78 31 13 24.1 100.50   -4 LegendNANA
07:00 Legend Double Dagger 0.3 -3.8 74 31 15 24.1 100.54     Mostly Cloudy
08:00 Legend Double Dagger 2.0 -3.3 68 32 10 24.1 100.60     LegendNANA
09:00 Legend Double Dagger 2.9 -3.7 62 2 7 24.1 100.63     LegendNANA
10:00 Legend Double Dagger 3.3 -3.3 62 31 14 24.1 100.69     Mostly Cloudy
11:00 Legend Double Dagger 4.2 -3.3 58 35 9 24.1 100.69     LegendNANA
12:00 Legend Double Dagger 4.7 -4.3 52 31 18 24.1 100.70     LegendNANA
13:00 Legend Double Dagger 4.8 -5.6 47 30 19 24.1 100.69     Mostly Cloudy
14:00 Legend Double Dagger 6.2 -4.6 46 1 17 24.1 100.67     LegendNANA
15:00 Legend Double Dagger 5.1 -6.2 44 35 19 24.1 100.71     LegendNANA
16:00 Legend Double Dagger 4.7 -4.9 50 36 21 24.1 100.74     Mostly Cloudy
17:00 Legend Double Dagger 3.2 -4.3 58 35 22 24.1 100.79     LegendNANA
18:00 Legend Double Dagger 2.7 -4.5 59 34 17 24.1 100.83     LegendNANA
19:00 Legend Double Dagger 1.9 -4.2 64 35 15 24.1 100.88     Mainly Clear
20:00 Legend Double Dagger 1.1 -4.2 68 31 9 24.1 100.87     LegendNANA
21:00 Legend Double Dagger 0.8 -4.3 69 30 7 24.1 100.88     LegendNANA
22:00 Legend Double Dagger 0.9 -4.0 70 36 1 24.1 100.87     Clear
23:00 Legend Double Dagger 0.6 -4.3 70 25 4 24.1 100.84     LegendNANA

Notes on Data Quality.

Legend

  • E = Estimated
  • M = Missing
  • NA = Not Available
  • ‡ = Partner data that is not subject to review by the National Climate Archives
Date modified: